sat.trackr.live / text

‹ back to catalog

TIANYI B

NORAD 64049 · 2025-103B

PAYLOAD ACTIVE UNKNOWN

§ Identity

Operator
Country
PRC
Launch date
2025-05-17
Launch site
JSC
Launch vehicle
Mass (kg)
RCS (m²)

External: N2YO · Heavens-Above · Gunter

§ Orbital elements

Epoch: 2026-09-21T22:29:23.795808Z

Period
94.72 min
Inclination
97.3713°
Eccentricity
0.0001922
Mean motion
15.20313577 rev/d
Perigee alt
503.6 km
Apogee alt
506.2 km
Semi-major
6,883.0 km
B*
1.1649e-4
RAAN
334.6784°
Arg perigee
158.8274°
Mean anomaly
201.3041°
Rev number
7,476

§ Raw data

TIANYI B1 64049U 25103B   26264.93708097  .00002464  00000+0  11649-3 0  99962 64049  97.3713 334.6784 0001922 158.8274 201.3041 15.20313577 74768

JSON: /api/v1/satellites/64049 · /tle

For live sub-satellite position, see the globe view (requires WebGL).

§ Visibility from observer

Set your observer location to see the next 7 days of passes ≥ 10°. The values pass through the URL so the page stays shareable.

No JS? Fill the form by hand. The geolocation button needs JavaScript.

§ Radio — SatNOGS DB

ModeDescriptionDownlinkUplink
FSK Mode U TLM 401.251 MHz

1 transmitter · refreshed weekly from db.satnogs.org